Weather History for Nome, AK

Change the Weather History Date:

Wednesday, August 28, 2013

  Actual Average Record
Temperature  
Mean Temperature 47 °F 49 °F  
Max Temperature 56 °F 55 °F 69 °F (1981)
Min Temperature 38 °F 43 °F 26 °F (1994)
Degree Days  
Heating Degree Days 18 16  
Month to date heating degree days 304 414  
Since 1 June heating degree days 1187 1330  
Since 1 July heating degree days 711 814  
Cooling Degree Days 0    
Month to date cooling degree days 0  
Year to date cooling degree days 7  
Since 1 June cooling degree days 7  
Moisture  
Dew Point 39 °F    
Average Humidity 0    
Maximum Humidity 0    
Minimum Humidity 0    
Precipitation  
Precipitation T in 0.09 in 0.74 in (1924)
Month to date precipitation 4.05 2.94  
Year to date precipitation 12.95 10.17  
Snow  
Snow 0.00 in 0.00 in T in (1913)
Month to date snowfall 0.0 0.0  
Since 1 June snowfall 0.1 0.3  
Since 1 July snowfall 0.0 0.0  
Snow Depth 0.00 in    
Sea Level Pressure  
Sea Level Pressure 29.67 in    
Wind  
Wind Speed 5 mph (NNW)    
Max Wind Speed 16 mph    
Max Gust Speed 20 mph    
Visibility 10 miles    
Events Rain    
T = Trace of Precipitation, MM = Missing Value Source: NWS Daily Summary

Daily Weather History Graph

Daily Weather History Graph

Search for Another Location

Airport:

Trip Planner

Search our weather history database for the weather conditions in past years. The results will help you decide how hot, cold, wet, or windy it might be!

Date:

Astronomy

Aug. 28, 2013 Rise Set
Actual Time 7:32 AM AKDT 10:31 PM AKDT
Civil Twilight 6:36 AM AKDT 11:26 PM AKDT
Nautical Twilight 5:13 AM AKDT 12:47 AM AKDT
Astronomical Twilight 3:35 AM AKDT 2:30 AM AKDT
Moon No Moon Rise 6:34 PM AKDT (8/28)
Length of Visible Light 16h 50m
Length of Day
14h 58m
Last Quarter, 46% of the Moon is Illuminated
Aug 28
Last Quarter
Sep 5
New
Sep 12
First Quarter
Sep 19
Full
Sep 26
Last Quarter

Hourly Weather History & Observations

Time (AKDT) Temp. Windchill Dew Point Humidity Pressure Visibility Wind Dir Wind Speed Gust Speed Precip Events Conditions
12:53 AM 41.0 °F 37.1 °F 39.0 °F 93% 29.62 in 10.0 mi NNW 5.8 mph - N/A   Mostly Cloudy
1:53 AM 43.0 °F 41.3 °F 39.9 °F 89% 29.62 in 10.0 mi WNW 3.5 mph - N/A   Mostly Cloudy
2:53 AM 42.1 °F 40.2 °F 39.9 °F 92% 29.62 in 10.0 mi NNW 3.5 mph - 0.00 in Rain Light Rain
3:53 AM 42.1 °F - 39.9 °F 92% 29.63 in 10.0 mi Calm Calm - 0.00 in   Mostly Cloudy
4:53 AM 43.0 °F - 39.0 °F 86% 29.62 in 10.0 mi Calm Calm - N/A   Overcast
5:53 AM 42.1 °F 37.7 °F 39.0 °F 89% 29.63 in 10.0 mi NNW 6.9 mph - N/A   Mostly Cloudy
6:53 AM 41.0 °F - 39.0 °F 93% 29.63 in 10.0 mi Calm Calm - N/A   Mostly Cloudy
7:53 AM 37.9 °F - 37.0 °F 97% 29.62 in 10.0 mi Calm Calm - N/A   Mostly Cloudy
8:53 AM 37.9 °F - 36.0 °F 93% 29.62 in 10.0 mi Calm Calm - N/A   Mostly Cloudy
9:53 AM 45.0 °F - 41.0 °F 86% 29.63 in 10.0 mi Calm Calm - N/A   Scattered Clouds
10:53 AM 44.6 °F - 41.0 °F 87% 29.64 in 10.0 mi Calm Calm - N/A   Scattered Clouds
11:53 AM 53.1 °F - 42.1 °F 66% 29.65 in 10.0 mi Calm Calm - N/A   Mostly Cloudy
12:53 PM 54.0 °F - 39.0 °F 57% 29.67 in 10.0 mi NNW 9.2 mph - N/A   Overcast
1:53 PM 55.0 °F - 35.1 °F 47% 29.68 in 10.0 mi NNW 3.5 mph - N/A   Mostly Cloudy
2:53 PM 55.9 °F - 37.9 °F 51% 29.67 in 10.0 mi North 5.8 mph - N/A   Mostly Cloudy
3:53 PM 55.0 °F - 39.9 °F 57% 29.68 in 10.0 mi North 9.2 mph - N/A   Mostly Cloudy
4:53 PM 55.0 °F - 41.0 °F 59% 29.68 in 10.0 mi North 10.4 mph - N/A   Mostly Cloudy
5:53 PM 55.0 °F - 39.9 °F 57% 29.70 in 10.0 mi NNW 10.4 mph - N/A   Overcast
6:53 PM 55.0 °F - 42.1 °F 62% 29.69 in 10.0 mi NNE 10.4 mph - N/A   Mostly Cloudy
7:53 PM 53.1 °F - 41.0 °F 64% 29.71 in 10.0 mi North 13.8 mph - N/A   Overcast
8:53 PM 51.1 °F - 41.0 °F 68% 29.74 in 10.0 mi North 10.4 mph - N/A   Overcast
9:53 PM 48.9 °F - 39.0 °F 69% 29.76 in 10.0 mi North 8.1 mph - N/A   Mostly Cloudy
10:53 PM 46.9 °F - 39.0 °F 74% 29.76 in 10.0 mi North 4.6 mph - N/A   Mostly Cloudy
11:53 PM 43.0 °F 36.4 °F 37.0 °F 80% 29.79 in 10.0 mi North 12.7 mph - N/A   Partly Cloudy